This demonstration page uses our WeatherBlox Daily Observations layout. Learn more.

Left ArrowRight Arrow

Hourly Observations for April 23, 2021

Temp ( °F °C ) Dew Point ( °F °C ) Humidity (%) Winds ( mph kmh ) Pressure ( in mb ) Visibility ( mi km ) Precip ( " mm )
12:53 am 00:53 Clear 58 14.4 45 7.2 62 62 Calm 29.87 1012 10 16 0.00 0.00
1:53 am 01:53 Clear 57 13.9 45 7.2 64 64 Calm 29.88 1012 10 16 0.00 0.00
2:53 am 02:53 Clear 55 12.8 45 7.2 69 69 SSE 6 9 29.88 1012 10 16 0.00 0.00
3:53 am 03:53 Clear 53 11.7 45 7.2 74 74 Calm 29.90 1012 10 16 0.00 0.00
4:53 am 04:53 Clear 51 10.6 45 7.2 80 80 WSW 3 6 29.91 1013 10 16 0.00 0.00
5:53 am 05:53 Clear 49 9.4 43 6.1 80 80 Calm 29.91 1013 10 16 0.00 0.00
6:53 am 06:53 Sunny 48 8.9 44 6.7 86 86 Calm 29.94 1014 10 16 0.00 0.00
7:53 am 07:53 Sunny 52 11.1 46 7.8 80 80 Calm 29.96 1015 10 16 0.00 0.00
8:53 am 08:53 Sunny 57 13.9 47 8.3 69 69 VRB 3 6 29.96 1014 10 16 0.00 0.00
9:53 am 09:53 Sunny 61 16.1 47 8.3 60 60 SW 5 7 29.95 1014 10 16 0.00 0.00
10:53 am 10:53 Sunny 64 17.8 47 8.3 54 54 VRB 3 6 29.94 1014 10 16 0.00 0.00
11:53 am 11:53 Sunny 68 20 47 8.3 47 47 VRB 7 11 29.93 1014 10 16 0.00 0.00
12:53 pm 12:53 Sunny 71 21.7 46 7.8 41 41 SSE 5 7 29.91 1013 10 16 0.00 0.00
1:31 pm 13:31 Hazy 73 22.8 48 8.9 41 41 S 8 13 29.88 1012 1 2 0.00 0.00
1:39 pm 13:39 Sunny 73 22.8 48 8.9 41 41 SE 7 11 29.88 1012 10 16 0.00 0.00
1:53 pm 13:53 Sunny 73 22.8 47 8.3 40 40 VRB 5 7 29.88 1012 10 16 0.00 0.00
2:53 pm 14:53 Sunny 75 23.9 48 8.9 39 39 SSE 9 15 29.86 1011 10 16 0.00 0.00
3:53 pm 15:53 Sunny 76 24.4 47 8.3 36 36 SSE 10 17 29.84 1011 10 16 0.00 0.00
4:53 pm 16:53 Sunny 76 24.4 45 7.2 33 33 S 16 26 29.82 1010 10 16 0.00 0.00
5:53 pm 17:53 Sunny 75 23.9 46 7.8 36 36 S 13 20 29.81 1010 10 16 0.00 0.00
6:53 pm 18:53 Sunny 73 22.8 47 8.3 40 40 SSE 12 19 29.81 1009 10 16 0.00 0.00
7:53 pm 19:53 Partly Cloudy 71 21.7 46 7.8 41 41 S 9 15 29.80 1009 10 16 0.00 0.00
8:53 pm 20:53 Mostly Cloudy 71 21.7 45 7.2 39 39 SSW 7 11 29.81 1010 10 16 0.00 0.00
9:53 pm 21:53 Mostly Clear 70 21.1 46 7.8 42 42 SSW 8 13 29.82 1010 10 16 0.00 0.00
10:53 pm 22:53 Mostly Cloudy 69 20.6 46 7.8 44 44 SSW 16 26 29.82 1010 10 16 0.00 0.00
11:53 pm 23:53 Mostly Cloudy 68 20 47 8.3 47 47 S 14 22 29.83 1010 10 16 0.00 0.00

Powered by AerisWeather